This demonstration page uses our WeatherBlox Daily Observations layout. Learn more.

Left ArrowRight Arrow

Hourly Observations for April 13, 2020

Temp ( °F °C ) Dew Point ( °F °C ) Humidity (%) Winds ( mph kmh ) Pressure ( in mb ) Visibility ( mi km ) Precip ( " mm )
12:15 am 00:15 Cloudy 57 14 57 14 100 100 SSE 9 15 29.93 1014 7 11.26538 0.01 0.254
12:35 am 00:35 Cloudy 57 14 57 14 100 100 SSE 10 17 29.92 1013 10 16.0934 0.04 1.016
12:55 am 00:55 Cloudy 57 14 57 14 100 100 SSE 15 24 29.9 1013 10 16.0934 0.05 1.27
1:15 am 01:15 Cloudy 57 14 57 14 100 100 SSE 13 20 29.88 1012 10 16.0934 0 0
1:35 am 01:35 Cloudy 57 14 57 14 100 100 SSE 20 31 29.87 1012 7 11.26538 0.02 0.508
1:55 am 01:55 Cloudy 57 14 55 13 94 94 S 18 30 29.88 1012 7 11.26538 0.04 1.016
2:15 am 02:15 Cloudy 57 14 55 13 94 94 S 13 20 29.87 1012 7 11.26538 0.03 0.762
2:35 am 02:35 Cloudy 55 13 55 13 100 100 S 16 26 29.85 1011 5 8.0467 0.04 1.016
2:55 am 02:55 Cloudy 57 14 55 13 94 94 S 12 19 29.83 1010 10 16.0934 0.05 1.27
3:15 am 03:15 Cloudy 55 13 55 13 100 100 S 14 22 29.82 1010 7 11.26538 0.01 0.254
3:35 am 03:35 Cloudy 55 13 55 13 100 100 S 14 22 29.8 1009 7 11.26538 0.06 1.524
3:55 am 03:55 Cloudy 55 13 55 13 100 100 S 7 11 29.8 1009 2 3.21868 0.36 9.144
4:15 am 04:15 Cloudy 55 13 55 13 100 100 S 9 15 29.78 1009 4 6.43736 0.12 3.048
4:35 am 04:35 Cloudy 55 13 55 13 100 100 SSE 7 11 29.76 1008 7 11.26538 0.17 4.318
4:55 am 04:55 Cloudy 55 13 55 13 100 100 SSE 7 11 29.76 1008 10 16.0934 0.19 4.826
5:15 am 05:15 Cloudy 54 12 54 12 100 100 ESE 7 11 29.73 1007 7 11.26538 0.03 0.762
5:35 am 05:35 Cloudy 54 12 54 12 100 100 ESE 6 9 29.72 1007 4 6.43736 0.08 2.032
5:55 am 05:55 Cloudy 54 12 54 12 100 100 SE 6 9 29.72 1007 2.5 4.02335 0.18 4.572
6:15 am 06:15 Cloudy 54 12 54 12 100 100 ESE 8 13 29.7 1006 4 6.43736 0.08 2.032
6:35 am 06:35 Cloudy 54 12 54 12 100 100 SE 5 7 29.7 1006 5 8.0467 0.12 3.048
6:55 am 06:55 Cloudy 54 12 54 12 100 100 ESE 3 6 29.68 1005 4 6.43736 0.21 5.334
7:15 am 07:15 Cloudy 54 12 54 12 100 100 ESE 5 7 29.66 1005 2.5 4.02335 0.09 2.286
7:35 am 07:35 Cloudy 54 12 54 12 100 100 SE 8 13 29.64 1004 5 8.0467 0.13 3.302
7:55 am 07:55 Cloudy 54 12 54 12 100 100 SE 15 24 29.57 1001 3 4.82802 0.18 4.572
8:15 am 08:15 Cloudy 55 13 55 13 100 100 SSE 9 15 29.52 1000 10 16.0934 0.01 0.254
8:35 am 08:35 Cloudy 55 13 55 13 100 100 S 20 31 29.55 1001 10 16.0934 0.01 0.254
8:55 am 08:55 Cloudy 57 14 57 14 100 100 S 15 24 29.53 1000 10 16.0934 0.01 0.254
9:15 am 09:15 Cloudy 59 15 59 15 100 100 S 16 26 29.52 1000 10 16.0934 0 0
9:35 am 09:35 Cloudy 59 15 59 15 100 100 S 15 24 29.5 999 10 16.0934 0 0
9:55 am 09:55 Cloudy 61 16 61 16 100 100 S 20 31 29.49 999 10 16.0934 0 0
10:15 am 10:15 Cloudy 61 16 61 16 100 100 S 18 30 29.49 999 10 16.0934 0 0
10:35 am 10:35 Cloudy 61 16 61 16 100 100 S 16 26 29.49 999 7 11.26538 0 0
10:55 am 10:55 Cloudy 63 17 61 16 94 94 S 14 22 29.5 999 10 16.0934 0 0
11:15 am 11:15 Cloudy 63 17 63 17 100 100 S 17 28 29.47 998 10 16.0934 0 0
11:35 am 11:35 Cloudy 64 18 63 17 94 94 S 16 26 29.45 997 10 16.0934 0 0
11:55 am 11:55 Mostly Cloudy 66 19 63 17 88 88 SSW 14 22 29.46 998 10 16.0934 0 0
12:15 pm 12:15 Cloudy 66 19 64 18 94 94 S 12 19 29.45 997 10 16.0934 0 0
12:35 pm 12:35 Cloudy 68 20 64 18 88 88 S 16 26 29.43 997 10 16.0934 0 0
12:55 pm 12:55 Mostly Cloudy 68 20 64 18 88 88 SSW 14 22 29.43 997 10 16.0934 0 0
1:15 pm 13:15 Cloudy 68 20 64 18 88 88 SSW 14 22 29.43 997 7 11.26538 0 0
1:35 pm 13:35 Cloudy 68 20 63 17 83 83 WSW 17 28 29.43 997 10 16.0934 0 0
1:55 pm 13:55 Cloudy 73 23 63 17 69 69 W 17 28 29.43 997 10 16.0934 0 0
2:15 pm 14:15 Mostly Cloudy with Thunderstorms 63 17 61 16 94 94 WNW 15 24 29.48 998 7 11.26538 0.12 3.048
2:35 pm 14:35 Partly Cloudy with Nearby Thunderstorms 68 20 63 17 83 83 WNW 18 30 29.48 998 10 16.0934 0.12 3.048
2:55 pm 14:55 Sunny 72 22 59 15 65 65 W 28 44 29.49 999 10 16.0934 0.12 3.048
3:15 pm 15:15 Partly Cloudy 73 23 55 13 53 53 WNW 26 43 29.51 999 10 16.0934 0 0
3:35 pm 15:35 Partly Cloudy 73 23 54 12 50 50 WNW 25 41 29.53 1000 10 16.0934 0 0
3:55 pm 15:55 Partly Cloudy 73 23 54 12 50 50 W 30 48 29.55 1001 10 16.0934 0 0
4:15 pm 16:15 Partly Cloudy 73 23 54 12 50 50 WNW 23 37 29.56 1001 10 16.0934 0 0
4:35 pm 16:35 Sunny 72 22 54 12 53 53 WNW 20 31 29.59 1002 10 16.0934 0 0
4:55 pm 16:55 Sunny 72 22 54 12 53 53 NW 24 39 29.62 1003 10 16.0934 0 0
5:15 pm 17:15 Sunny 72 22 54 12 53 53 WNW 16 26 29.65 1004 10 16.0934 0 0
5:35 pm 17:35 Partly Cloudy 72 22 52 11 50 50 W 15 24 29.67 1005 10 16.0934 0 0
5:55 pm 17:55 Partly Cloudy 72 22 52 11 50 50 W 17 28 29.68 1005 10 16.0934 0 0
6:15 pm 18:15 Mostly Cloudy 72 22 50 10 47 47 W 16 26 29.7 1006 10 16.0934 0 0
6:35 pm 18:35 Mostly Cloudy 70 21 50 10 50 50 WNW 17 28 29.73 1007 10 16.0934 0 0
6:55 pm 18:55 Partly Cloudy 70 21 50 10 50 50 WNW 26 43 29.74 1007 10 16.0934 0 0
7:15 pm 19:15 Partly Cloudy 68 20 46 8 46 46 WNW 22 35 29.77 1008 10 16.0934 0 0
7:35 pm 19:35 Partly Cloudy 68 20 48 9 49 49 WNW 16 26 29.79 1009 10 16.0934 0 0
7:55 pm 19:55 Partly Cloudy 64 18 46 8 52 52 NW 18 30 29.81 1010 10 16.0934 0 0
8:15 pm 20:15 Clear 63 17 45 7 52 52 NW 22 35 29.84 1010 10 16.0934 0 0
8:35 pm 20:35 Clear 61 16 43 6 52 52 NW 18 30 29.87 1011 10 16.0934 0 0
8:55 pm 20:55 Clear 59 15 41 5 51 51 NW 21 33 29.91 1013 10 16.0934 0 0
9:15 pm 21:15 Clear 59 15 41 5 51 51 NW 18 30 29.93 1013 10 16.0934 0 0
9:55 pm 21:55 Clear 55 13 37 3 51 51 NW 15 24 29.98 1015 10 16.0934 0 0
10:15 pm 22:15 Clear 54 12 36 2 51 51 NW 16 26 29.98 1015 10 16.0934 0 0
10:35 pm 22:35 Clear 54 12 37 3 54 54 NW 13 20 30.01 1016 10 16.0934 0 0
10:55 pm 22:55 Clear 52 11 37 3 58 58 NW 14 22 30.02 1017 10 16.0934 0 0
11:15 pm 23:15 Clear 52 11 37 3 58 58 NW 10 17 30.04 1017 10 16.0934 0 0
11:35 pm 23:35 Clear 52 11 36 2 54 54 WNW 17 28 30.04 1017 10 16.0934 0 0
11:55 pm 23:55 Clear 50 10 36 2 58 58 NW 13 20 30.06 1018 10 16.0934 0 0

Powered by AerisWeather